星链-32366 (STARLINK-32366)

导读 | 星芒AI

STARLINK-32366 是 SpaceX Starlink 卫星互联网项目中的一颗低轨卫星。该卫星属于 Starlink 群体的一部分,旨在为全球用户提供高速互联网服务。它运行在近地轨道,通过与其他 Starlink 卫星协同工作,实现低延迟、高带宽的通信连接。该系统特别服务于传统网络难以覆盖的偏远地区。STARLINK-32366 的发射和运行体现了 SpaceX 在构建全球卫星互联网基础设施方面的持续努力。

基本信息
目录编号:
61551
目录名称:
STARLINK-32366
国际标识:
2024-184V
轨道中心:
EARTH
卫星名称:
星链-32366
卫星全名:
星链-32366 (STARLINK-32366)
卫星状态:
在轨 (已飞行431 天)
发射日期:
2024-10-15 UTC
国别 :
美国 (US)
星等 :
--
轨道信息
数据来源 国际轨道数据 AOE轨道数据
星历时间 2025-12-19T18:04:35+0800
22小时前
查看轨道信息
2025-12-16T08:00:00+0800
4天前
查看轨道信息
半长轴 6853.399km 6853.34km
偏心率 0.0001196 0.0000959
轨道倾角 53.161° 53.162°
近地点辐角 93.237° 88.009°
升交点赤经 27.051° 42.938°
平近点角 266.877° 142.722°
近地点 474.442km 474.547km
远地点 476.082km 475.863km
周期 94.106分钟 94.105分钟
每日圈数 15.301843 15.302043
详细信息
固有亮度:
5
最大亮度:
2.5
卫星平台:
Starlink V1.0
覆盖范围:
全球
运营商:
太空探索技术公司
运营商所在国:
美国
制造商(研发单位):
太空探索技术公司
制造商所在国:
美国
使用方式:
暂无
卫星简介
Starlink 计划是 SpaceX 推出的全球卫星互联网项目,通过发射低轨道卫星,为全球尤其是偏远地区提供高速、低延迟的互联网服务。自 2019 年起,Starlink 已部署数千颗卫星,旨在缩小全球数字鸿沟,推动互联网普及。该项目还为军事、航空等行业提供通信支持,带来广泛经济效益。
2D轨道图
3D轨道图
轨道高度分析图
轨道倾角分析图
轨道综合分析图
查看轨道综合分析图